Location: Kapla
(46.2483°N, 15.0094°E)
Time: 15:50:20
(UTC+00:00)

Lacrosse 4 Rocket - Pass Details

Date: 03 March 2021
Orbit: 537 x 620 km, 68.0° (Epoch: 18 April)

Event Time Altitude Azimuth Distance (km) Brightness Sun altitude
Rises 19:10:21 0° 208° (SSW) 2,818 5.1 -24.9°
Reaches altitude 10° 19:12:33 10° 208° (SSW) 1,933 4.2 -25.3°
Enters shadow 19:14:27 26° 208° (SSW) 1,202 3.1 -25.6°
